W4WYD-2 Weather Reports


time (UTC)temp
C
wind
direction
speed
KPH
gust
KPH
rain 1hr
cm
rain 24hr
cm
rain mn
cm
humidity
%
barometer
mb
20260906113947 23 242 0.0 0.0 0.00 0.00 0.00 99 1014.0
20260906113445 23 242 0.0 0.0 0.00 0.00 0.00 99 1013.7
20260906112941 23 242 0.0 1.6 0.00 0.00 0.00 99 1013.8
20260906112436 23 241 0.0 0.0 0.00 0.00 0.00 99 1013.9
20260906111932 23 241 0.0 0.0 0.00 0.00 0.00 99 1013.7
20260906111431 23 241 0.0 0.0 0.00 0.00 0.00 99 1013.6
20260906110926 23 241 0.0 1.6 0.00 0.00 0.00 99 1013.6
20260906110422 23 241 0.0 0.0 0.00 0.00 0.00 99 1013.6
20260906105920 23 241 0.0 0.0 0.00 0.00 0.00 99 1013.4
20260906105411 23 241 0.0 0.0 0.00 0.00 0.00 99 1013.4
20260906104907 23 241 0.0 0.0 0.00 0.00 0.00 99 1013.2
20260906104405 23 241 0.0 0.0 0.00 0.00 0.00 99 1012.8
20260906103903 23 241 0.0 1.6 0.00 0.00 0.00 98 1012.9
20260906103402 23 241 0.0 0.0 0.00 0.00 0.00 98 1013.0
20260906102858 23 241 0.0 0.0 0.00 0.00 0.00 98 1012.9
20260906102357 23 241 0.0 1.6 0.00 0.00 0.00 98 1012.8
20260906101852 23 241 0.0 0.0 0.00 0.00 0.00 98 1012.8
20260906101347 23 241 0.0 0.0 0.00 0.00 0.00 98 1012.8
20260906100843 23 241 0.0 0.0 0.00 0.00 0.00 98 1012.6
20260906100342 23 241 0.0 0.0 0.00 0.00 0.00 98 1012.8
20260906095837 23 241 0.0 0.0 0.00 0.00 0.00 98 1012.8
20260906095332 23 241 0.0 0.0 0.00 0.00 0.00 98 1012.7
20260906094832 23 240 0.0 0.0 0.00 0.00 0.00 98 1012.8
20260906094327 23 240 1.6 3.2 0.00 0.00 0.00 98 1012.8
20260906093823 23 240 0.0 0.0 0.00 0.00 0.00 98 1012.9
20260906093319 24 240 0.0 0.0 0.00 0.00 0.00 97 1012.9
20260906092808 24 240 1.6 3.2 0.00 0.00 0.00 97 1012.8
20260906092308 24 241 0.0 0.0 0.00 0.00 0.00 97 1012.9
20260906091804 24 227 0.0 0.0 0.00 0.00 0.00 98 1013.0
20260906091300 24 228 0.0 0.0 0.00 0.00 0.00 98 1012.9
20260906090756 24 227 0.0 3.2 0.00 0.00 0.00 98 1012.7
20260906090255 24 230 1.6 1.6 0.00 0.00 0.00 98 1012.9
20260906085754 24 232 1.6 1.6 0.00 0.00 0.00 98 1012.8
20260906085254 24 250 1.6 1.6 0.00 0.00 0.00 98 1013.0
20260906084749 24 245 1.6 3.2 0.00 0.00 0.00 98 1012.9
20260906084248 23 203 0.0 0.0 0.00 0.00 0.00 98 1012.9
20260906083743 23 204 0.0 1.6 0.00 0.00 0.00 98 1012.9
20260906083239 24 239 0.0 0.0 0.00 0.00 0.00 98 1012.5
20260906082734 24 239 0.0 0.0 0.00 0.00 0.00 98 1012.6
20260906082229 24 239 0.0 0.0 0.00 0.00 0.00 98 1012.5
20260906081725 24 239 0.0 0.0 0.00 0.00 0.00 98 1012.6
20260906081225 24 239 0.0 0.0 0.00 0.00 0.00 98 1012.4
20260906080721 24 239 0.0 0.0 0.00 0.00 0.00 98 1012.4
20260906080218 24 239 0.0 0.0 0.00 0.00 0.00 98 1012.2
20260906075712 24 239 0.0 0.0 0.00 0.00 0.00 97 1012.4
20260906075207 24 239 0.0 0.0 0.00 0.00 0.00 97 1012.4
20260906074702 24 239 0.0 0.0 0.00 0.00 0.00 97 1012.4
20260906074201 25 239 0.0 1.6 0.00 0.00 0.00 97 1012.2
20260906073656 25 239 1.6 1.6 0.00 0.00 0.00 97 1012.5
20260906073151 25 238 0.0 0.0 0.00 0.00 0.00 98 1012.4
20260906072647 25 239 0.0 1.6 0.00 0.00 0.00 98 1012.5
20260906072142 25 225 1.6 1.6 0.00 0.00 0.00 98 1012.6
20260906071638 25 198 1.6 1.6 0.00 0.00 0.00 98 1012.5
20260906071138 25 249 0.0 0.0 0.00 0.00 0.00 98 1012.4
20260906070635 25 249 0.0 0.0 0.00 0.00 0.00 98 1012.2
20260906070130 25 249 0.0 0.0 0.00 0.00 0.00 98 1012.2
20260906065630 25 249 0.0 0.0 0.00 0.00 0.00 98 1012.5
20260906065125 25 249 0.0 0.0 0.00 0.00 0.00 98 1012.3
20260906064620 25 249 0.0 1.6 0.00 0.00 0.00 98 1012.4
20260906064115 25 249 1.6 1.6 0.00 0.00 0.00 98 1012.3
20260906063610 25 249 0.0 0.0 0.00 0.00 0.00 98 1012.4
20260906063106 25 249 1.6 1.6 0.00 0.00 0.00 98 1012.4
20260906062557 25 249 1.6 1.6 0.00 0.00 0.00 98 1012.4
20260906062055 25 249 0.0 0.0 0.00 0.00 0.00 98 1012.6
20260906061552 25 249 0.0 0.0 0.00 0.00 0.00 98 1012.6
20260906061051 25 249 0.0 0.0 0.00 0.00 0.00 98 1012.6
20260906060548 25 249 0.0 1.6 0.00 0.00 0.00 98 1012.9
20260906060044 25 249 0.0 0.0 0.00 0.00 0.00 98 1012.5
20260906055540 25 249 0.0 1.6 0.00 0.00 0.00 98 1012.7
20260906055035 25 249 1.6 1.6 0.00 0.00 0.00 98 1012.8
20260906054530 24 249 0.0 1.6 0.00 0.00 0.00 98 1012.8
20260906054025 25 249 1.6 1.6 0.00 0.00 0.00 98 1012.7
20260906053521 25 249 0.0 1.6 0.00 0.00 0.00 98 1012.7
20260906053017 24 249 0.0 1.6 0.00 0.00 0.00 98 1012.7
20260906052512 24 249 1.6 1.6 0.00 0.00 0.00 98 1012.8
20260906052010 24 249 1.6 1.6 0.00 0.00 0.00 98 1012.8
20260906051505 24 249 0.0 0.0 0.00 0.00 0.00 98 1012.8
20260906051000 24 249 0.0 0.0 0.00 0.00 0.00 98 1012.8
20260906050500 24 249 0.0 0.0 0.00 0.00 0.00 98 1013.0
20260906045954 24 249 0.0 0.0 0.00 0.18 0.18 98 1013.1
20260906045453 24 249 0.0 0.0 0.00 0.18 0.18 98 1013.0
20260906044949 24 249 0.0 0.0 0.00 0.18 0.18 98 1013.3
20260906044444 24 249 0.0 0.0 0.00 0.18 0.18 98 1013.3
20260906043939 24 249 0.0 0.0 0.00 0.18 0.18 98 1013.0
20260906043435 24 249 0.0 0.0 0.00 0.18 0.18 98 1013.1
20260906042931 24 249 0.0 0.0 0.00 0.18 0.18 98 1013.2
20260906042430 24 249 0.0 0.0 0.00 0.18 0.18 98 1013.2
20260906041925 24 249 0.0 0.0 0.00 0.18 0.18 98 1013.1
20260906041420 24 250 0.0 0.0 0.00 0.18 0.18 98 1013.3
20260906040920 24 249 0.0 0.0 0.00 0.18 0.18 98 1013.3
20260906040416 25 249 0.0 0.0 0.00 0.18 0.18 98 1013.0
20260906035911 25 249 0.0 1.6 0.00 0.18 0.18 98 1013.2
20260906035406 25 249 0.0 0.0 0.00 0.18 0.18 98 1013.0
20260906034902 25 249 0.0 0.0 0.00 0.18 0.18 98 1013.0
20260906034356 25 249 0.0 0.0 0.00 0.18 0.18 97 1013.3
20260906033852 25 249 0.0 0.0 0.00 0.18 0.18 97 1012.9
20260906033351 25 249 0.0 0.0 0.00 0.18 0.18 97 1013.0
20260906032848 25 249 0.0 1.6 0.00 0.18 0.18 97 1012.7
20260906032343 25 250 0.0 0.0 0.00 0.18 0.18 97 1012.9
20260906031838 25 250 0.0 0.0 0.00 0.18 0.18 97 1012.9
20260906031334 25 250 0.0 0.0 0.00 0.18 0.18 97 1012.7
20260906030833 25 249 0.0 0.0 0.00 0.18 0.18 97 1012.8
20260906030329 25 250 0.0 0.0 0.00 0.18 0.18 97 1012.7
20260906025829 25 249 0.0 0.0 0.00 0.18 0.18 97 1012.6
20260906025322 25 250 0.0 0.0 0.00 0.18 0.18 97 1012.5
20260906024821 25 250 0.0 1.6 0.00 0.18 0.18 96 1012.4
20260906024315 25 250 0.0 0.0 0.00 0.18 0.18 96 1012.3
20260906023811 25 250 0.0 0.0 0.00 0.18 0.18 96 1012.4
20260906023306 25 250 1.6 1.6 0.00 0.18 0.18 96 1012.3
20260906022802 25 249 1.6 1.6 0.00 0.18 0.18 96 1012.3
20260906022257 25 249 1.6 1.6 0.00 0.18 0.18 96 1012.4
20260906021753 25 258 1.6 3.2 0.00 0.18 0.18 95 1012.4
20260906021252 25 249 0.0 1.6 0.00 0.18 0.18 95 1012.4
20260906020747 25 249 0.0 0.0 0.00 0.18 0.18 95 1012.4
20260906020247 25 249 0.0 0.0 0.00 0.18 0.18 94 1012.4
20260906015741 25 249 0.0 0.0 0.00 0.18 0.18 94 1012.2
20260906015239 25 250 0.0 1.6 0.00 0.18 0.18 94 1012.2
20260906014734 26 251 1.6 1.6 0.00 0.18 0.18 94 1012.4
20260906014225 26 239 0.0 0.0 0.00 0.18 0.18 93 1012.2
20260906013721 26 239 0.0 1.6 0.00 0.18 0.18 93 1012.2
20260906013221 26 239 1.6 1.6 0.00 0.18 0.18 93 1012.3
20260906012715 26 239 0.0 1.6 0.00 0.18 0.18 93 1012.3
20260906012210 26 239 0.0 1.6 0.00 0.18 0.18 94 1012.2
20260906011706 26 239 1.6 1.6 0.00 0.18 0.18 94 1012.3
20260906011205 26 239 0.0 0.0 0.00 0.18 0.18 94 1012.2
20260906010655 26 239 0.0 1.6 0.00 0.18 0.18 95 1012.1
20260906010152 26 239 1.6 1.6 0.00 0.18 0.18 95 1012.0
20260906005650 26 239 0.0 0.0 0.00 0.18 0.18 96 1012.0
20260906005150 26 238 0.0 0.0 0.00 0.18 0.18 96 1012.0
20260906004649 26 238 0.0 0.0 0.00 0.18 0.18 96 1012.1
20260906004144 27 238 0.0 0.0 0.00 0.18 0.18 96 1011.8
20260906003639 27 238 0.0 1.6 0.00 0.18 0.18 96 1011.7
20260906003135 27 238 0.0 0.0 0.00 0.18 0.18 95 1011.8
20260906002631 27 238 0.0 1.6 0.00 0.18 0.18 95 1012.1
20260906002125 27 238 0.0 0.0 0.00 0.18 0.18 95 1011.9
20260906001621 27 238 0.0 0.0 0.00 0.18 0.18 95 1012.1
20260906001120 27 238 0.0 1.6 0.00 0.18 0.18 94 1011.9
20260906000616 27 238 0.0 0.0 0.00 0.18 0.18 94 1012.1
20260906000111 27 238 0.0 0.0 0.00 0.18 0.18 93 1012.1
20260905235610 28 238 0.0 1.6 0.00 0.18 0.18 93 1012.0
20260905235106 28 239 0.0 1.6 0.00 0.18 0.18 93 1011.7
20260905234601 28 227 0.0 0.0 0.00 0.18 0.18 92 1012.0
20260905234056 28 227 0.0 0.0 0.00 0.18 0.18 92 1011.9
20260905233555 28 227 1.6 1.6 0.00 0.18 0.18 90 1012.1
20260905233050 28 227 1.6 3.2 0.00 0.18 0.18 90 1012.1
20260905232545 29 228 1.6 1.6 0.00 0.18 0.18 88 1012.1
20260905232041 30 222 1.6 1.6 0.00 0.18 0.18 87 1012.0
20260905231537 30 222 1.6 1.6 0.00 0.18 0.18 87 1012.1
20260905231033 30 222 1.6 3.2 0.00 0.18 0.18 86 1012.0
20260905230532 30 223 1.6 1.6 0.00 0.18 0.18 85 1012.0
20260905230031 30 222 1.6 1.6 0.00 0.18 0.18 84 1012.1
20260905225525 31 222 1.6 1.6 0.00 0.18 0.18 83 1011.9
20260905225021 31 221 1.6 1.6 0.00 0.18 0.18 83 1012.0
20260905224515 31 221 1.6 3.2 0.00 0.18 0.18 82 1011.9
20260905224015 31 221 1.6 1.6 0.00 0.18 0.18 83 1012.1
20260905223512 31 225 1.6 3.2 0.00 0.18 0.18 81 1012.0
20260905223007 32 228 1.6 3.2 0.00 0.18 0.18 81 1011.8
20260905222502 32 222 1.6 1.6 0.00 0.18 0.18 80 1012.1
20260905221957 32 222 1.6 1.6 0.00 0.18 0.18 79 1011.9
20260905221453 32 220 1.6 1.6 0.00 0.18 0.18 79 1012.0
20260905220944 33 227 1.6 1.6 0.00 0.18 0.18 77 1012.1
20260905220440 34 223 1.6 1.6 0.00 0.18 0.18 75 1012.0
20260905215938 35 224 1.6 1.6 0.00 0.18 0.18 71 1012.1
20260905215434 35 220 0.0 0.0 0.00 0.18 0.18 70 1012.2
20260905214931 34 220 0.0 1.6 0.00 0.18 0.18 73 1012.2
20260905214426 35 219 1.6 1.6 0.00 0.18 0.18 71 1012.2
20260905213926 34 219 1.6 1.6 0.00 0.18 0.18 74 1012.3
20260905213423 34 217 1.6 1.6 0.00 0.18 0.18 72 1012.5
20260905212918 35 215 1.6 3.2 0.00 0.18 0.18 73 1012.5
20260905212412 35 215 1.6 1.6 0.00 0.18 0.18 69 1012.4
20260905211911 35 215 0.0 1.6 0.00 0.18 0.18 64 1012.6
20260905211407 35 227 1.6 3.2 0.00 0.18 0.18 68 1012.4
20260905210903 36 213 1.6 3.2 0.00 0.18 0.18 67 1012.5
20260905210403 36 219 0.0 1.6 0.00 0.18 0.18 62 1012.4
20260905205903 36 218 1.6 1.6 0.00 0.18 0.18 49 1012.7
20260905205357 36 221 1.6 1.6 0.00 0.18 0.18 47 1012.5
20260905204856 36 218 1.6 1.6 0.00 0.18 0.18 54 1012.5
20260905204353 36 210 0.0 1.6 0.00 0.18 0.18 48 1012.7
20260905203851 36 215 1.6 3.2 0.00 0.18 0.18 50 1012.7
20260905203346 36 240 1.6 3.2 0.00 0.18 0.18 65 1012.7
20260905202837 35 228 1.6 1.6 0.00 0.18 0.18 58 1012.8
20260905202337 35 228 1.6 1.6 0.00 0.18 0.18 66 1013.0
20260905201833 35 219 0.0 1.6 0.00 0.18 0.18 60 1013.1
20260905201328 35 220 1.6 1.6 0.00 0.18 0.18 64 1012.9
20260905200822 35 220 0.0 1.6 0.00 0.18 0.18 59 1012.9
20260905200319 35 220 1.6 1.6 0.00 0.18 0.18 66 1013.2
20260905195816 34 220 1.6 1.6 0.00 0.18 0.18 57 1013.3
20260905195312 33 225 1.6 3.2 0.00 0.18 0.18 72 1013.6
20260905194807 35 216 1.6 3.2 0.00 0.18 0.18 73 1013.6
20260905194301 35 231 1.6 1.6 0.00 0.18 0.18 70 1013.4
20260905193800 33 231 1.6 1.6 0.00 0.18 0.18 68 1013.8
20260905193256 32 230 0.0 1.6 0.00 0.18 0.18 70 1014.0
20260905192750 31 243 1.6 3.2 0.00 0.18 0.18 76 1014.0
20260905192247 31 214 1.6 3.2 0.00 0.18 0.18 77 1013.9
20260905191747 30 219 1.6 3.2 0.00 0.18 0.18 80 1014.2
20260905191245 29 237 1.6 1.6 0.00 0.18 0.18 82 1014.3
20260905190743 27 242 3.2 4.8 0.00 0.18 0.18 88 1014.5
20260905190243 27 244 0.0 1.6 0.00 0.18 0.18 87 1014.4
20260905185741 27 216 0.0 0.0 0.00 0.18 0.18 84 1014.6
20260905185236 27 238 3.2 8.0 0.18 0.18 0.18 83 1014.7
20260905184731 28 223 3.2 4.8 0.61 0.18 0.18 85 1015.0
20260905184230 31 228 0.0 1.6 0.89 0.15 0.15 76 1014.9
20260905183729 34 278 1.6 3.2 0.48 0.08 0.08 69 1014.7
20260905183225 37 252 1.6 3.2 0.00 0.00 0.00 53 1014.5
20260905182725 37 211 1.6 4.8 0.00 0.00 0.00 49 1014.4
20260905182224 37 219 0.0 1.6 0.00 0.00 0.00 47 1014.7
20260905181714 37 222 0.0 1.6 0.00 0.00 0.00 49 1014.6
20260905181213 37 185 1.6 3.2 0.00 0.00 0.00 48 1014.6
20260905180707 36 206 0.0 0.0 0.00 0.00 0.00 49 1014.7
20260905180203 36 206 1.6 3.2 0.00 0.00 0.00 54 1014.7
20260905175701 36 202 0.0 1.6 0.00 0.00 0.00 52 1014.8
20260905175157 36 199 1.6 1.6 0.00 0.00 0.00 51 1014.9
20260905174653 36 210 0.0 1.6 0.00 0.00 0.00 49 1014.7
20260905174148 35 213 1.6 3.2 0.00 0.00 0.00 50 1014.7
20260905173644 35 246 1.6 3.2 0.00 0.00 0.00 51 1014.9
20260905173140 35 245 3.2 4.8 0.00 0.00 0.00 51 1015.0
20260905172639 35 216 3.2 3.2 0.00 0.00 0.00 51 1015.0
20260905172134 35 228 1.6 8.0 0.00 0.00 0.00 52 1014.9
20260905171630 35 212 0.0 1.6 0.00 0.00 0.00 52 1015.1
20260905171126 35 223 3.2 4.8 0.00 0.00 0.00 53 1015.1
20260905170622 35 222 1.6 4.8 0.00 0.00 0.00 53 1015.3
20260905170117 35 202 1.6 1.6 0.00 0.00 0.00 56 1015.4
20260905165611 35 200 0.0 1.6 0.00 0.00 0.00 56 1015.4
20260905165106 35 202 0.0 1.6 0.00 0.00 0.00 53 1015.2
20260905164555 35 224 0.0 1.6 0.00 0.00 0.00 53 1015.4
20260905164049 35 214 3.2 3.2 0.00 0.00 0.00 59 1015.5
20260905163546 34 230 1.6 1.6 0.00 0.00 0.00 55 1015.6
20260905163042 33 226 1.6 3.2 0.00 0.00 0.00 59 1015.6
20260905162539 34 253 1.6 3.2 0.00 0.00 0.00 61 1015.7
20260905162038 34 195 4.8 4.8 0.00 0.00 0.00 58 1015.4
20260905161537 34 202 0.0 0.0 0.00 0.00 0.00 62 1015.5
20260905161035 34 202 1.6 1.6 0.00 0.00 0.00 66 1015.7
20260905160534 33 190 0.0 1.6 0.00 0.00 0.00 62 1015.5
20260905160029 33 206 1.6 3.2 0.00 0.00 0.00 61 1015.9
20260905155529 33 209 1.6 4.8 0.00 0.00 0.00 62 1015.6
20260905155027 32 215 1.6 3.2 0.00 0.00 0.00 67 1015.8
20260905154522 33 216 4.8 4.8 0.00 0.00 0.00 67 1015.7
20260905154018 32 258 0.0 0.0 0.00 0.00 0.00 68 1015.7
20260905153514 32 268 1.6 1.6 0.00 0.00 0.00 67 1015.8
20260905153014 32 212 3.2 3.2 0.00 0.00 0.00 70 1015.6
20260905152513 32 216 1.6 3.2 0.00 0.00 0.00 71 1015.8
20260905152008 32 220 0.0 0.0 0.00 0.00 0.00 68 1015.8
20260905151504 31 231 4.8 4.8 0.00 0.00 0.00 69 1016.0
20260905150959 31 270 3.2 3.2 0.00 0.00 0.00 71 1016.1
20260905150454 31 227 0.0 0.0 0.00 0.00 0.00 76 1015.9
20260905145950 31 227 0.0 1.6 0.00 0.00 0.00 78 1015.9
20260905145445 31 227 0.0 0.0 0.00 0.00 0.00 78 1015.9
20260905144944 31 227 0.0 0.0 0.00 0.00 0.00 76 1016.0
20260905144440 31 227 0.0 0.0 0.00 0.00 0.00 76 1016.0
20260905143939 30 228 0.0 0.0 0.00 0.00 0.00 75 1015.9
20260905143433 30 209 0.0 1.6 0.00 0.00 0.00 74 1015.7
20260905142932 30 209 0.0 0.0 0.00 0.00 0.00 76 1015.9
20260905142432 30 208 1.6 1.6 0.00 0.00 0.00 75 1015.8
20260905141928 29 253 0.0 0.0 0.00 0.00 0.00 80 1015.9
20260905141422 28 253 0.0 0.0 0.00 0.00 0.00 83 1015.8
20260905140919 28 253 0.0 0.0 0.00 0.00 0.00 85 1015.7
20260905140414 28 254 0.0 0.0 0.00 0.00 0.00 87 1015.7
20260905135912 27 253 0.0 0.0 0.00 0.00 0.00 88 1015.9
20260905135408 27 253 0.0 0.0 0.00 0.00 0.00 93 1015.9
20260905134903 26 253 0.0 0.0 0.00 0.00 0.00 97 1015.9
20260905134403 26 253 0.0 0.0 0.00 0.00 0.00 99 1015.8
20260905133857 26 253 0.0 0.0 0.00 0.00 0.00 99 1015.8
20260905133352 25 253 0.0 0.0 0.00 0.00 0.00 99 1015.8
20260905132851 25 253 0.0 0.0 0.00 0.00 0.00 99 1015.8
20260905132347 25 253 0.0 0.0 0.00 0.00 0.00 99 1015.8
20260905131846 25 253 0.0 0.0 0.00 0.00 0.00 99 1015.9
20260905131343 24 254 0.0 0.0 0.00 0.00 0.00 99 1015.7
20260905130837 24 254 0.0 0.0 0.00 0.00 0.00 99 1015.7
20260905130336 23 254 0.0 0.0 0.00 0.00 0.00 99 1015.6
20260905125831 23 254 0.0 0.0 0.00 0.00 0.00 99 1015.7
20260905125326 23 254 0.0 0.0 0.00 0.00 0.00 99 1015.7
20260905124823 23 254 0.0 0.0 0.00 0.00 0.00 99 1015.4
20260905124319 23 254 0.0 0.0 0.00 0.00 0.00 99 1015.6
20260905123819 23 254 0.0 0.0 0.00 0.00 0.00 99 1015.4
20260905123316 22 254 0.0 0.0 0.00 0.00 0.00 99 1015.6
20260905122815 22 254 0.0 0.0 0.00 0.00 0.00 99 1015.4
20260905122314 22 254 0.0 0.0 0.00 0.00 0.00 99 1015.4
20260905121810 22 254 0.0 0.0 0.00 0.00 0.00 99 1015.3
20260905121307 22 254 0.0 0.0 0.00 0.00 0.00 99 1015.4
20260905120805 22 254 0.0 0.0 0.00 0.00 0.00 99 1015.3
20260905120300 22 254 0.0 0.0 0.00 0.00 0.00 99 1015.1
20260905115754 22 254 0.0 0.0 0.00 0.00 0.00 99 1015.4
20260905115249 22 254 0.0 0.0 0.00 0.00 0.00 99 1015.5
20260905114748 22 254 0.0 0.0 0.00 0.00 0.00 99 1015.1
20260905114247 22 254 0.0 0.0 0.00 0.00 0.00 99 1015.1